Location: Cudham
(51.3000°N, 0.0667°E)
Time: 03:25:09
(UTC+00:00)

Cosmos 1420 Rocket - Pass Details

Date: 05 August 2025
Orbit: 750 x 776 km, 74.0° (Epoch: 12 December)

Event Time Altitude Azimuth Distance (km) Brightness Sun altitude
Exits shadow 22:27:32 21° 105° (ESE) 1,671 5.4 -18.7°
Maximum altitude 22:28:00 21° 97° (E) 1,660 5.4 -18.7°
Drops below altitude 10° 22:31:48 10° 50° (NE) 2,291 6.7 -19.0°
Sets 22:34:39 0° 35° (NE) 3,217 7.7 -19.1°
